Weather History for Kingsville NAS, TX

Change the Weather History Date:

Wednesday, January 2, 2013

  Actual Average Record
Temperature  
Mean Temperature 46 °F -  
Max Temperature 50 °F 67 °F 84 °F (2004)
Min Temperature 41 °F 46 °F 28 °F (2008)
Degree Days  
Heating Degree Days 20    
Moisture  
Dew Point 39 °F    
Average Humidity 84    
Maximum Humidity 96    
Minimum Humidity 71    
Precipitation  
Precipitation 0.26 in - - ()
Sea Level Pressure  
Sea Level Pressure 30.26 in    
Wind  
Wind Speed 10 mph (North)    
Max Wind Speed 13 mph    
Max Gust Speed -    
Visibility 8 miles    
Events Rain    
Averages and records for this station are not official NWS values.
T = Trace of Precipitation, MM = Missing Value Source: NWS Daily Summary

Daily Weather History Graph

Daily Weather History Graph

Search for Another Location

Airport:

Trip Planner

Search our weather history database for the weather conditions in past years. The results will help you decide how hot, cold, wet, or windy it might be!

Date:

Astronomy

Jan. 02, 2013 Rise Set
Actual Time 7:21 AM CST 5:49 PM CST
Civil Twilight 6:56 AM CST 6:14 PM CST
Nautical Twilight 6:27 AM CST 6:43 PM CST
Astronomical Twilight 5:58 AM CST 7:12 PM CST
Moon 10:51 PM CST (1/2) 10:32 AM CST (1/2)
Length of Visible Light 11h 18m
Length of Day
10h 27m
Waning Gibbous, 75% of the Moon is Illuminated
Jan 2
Waning Gibbous
Jan 4
Last Quarter
Jan 11
New
Jan 18
First Quarter
Jan 26
Full

Hourly Weather History & Observations

Time (CST) Temp. Windchill Dew Point Humidity Pressure Visibility Wind Dir Wind Speed Gust Speed Precip Events Conditions
12:56 AM 50.0 °F - 42.1 °F 74% 30.17 in 10.0 mi North 12.7 mph - N/A   Overcast
1:56 AM 50.0 °F - 41.0 °F 71% 30.20 in 10.0 mi North 9.2 mph - N/A   Overcast
2:56 AM 48.9 °F - 39.9 °F 71% 30.20 in 10.0 mi North 10.4 mph - N/A   Mostly Cloudy
3:56 AM 48.0 °F - 39.9 °F 74% 30.21 in 10.0 mi North 10.4 mph - N/A   Partly Cloudy
4:56 AM 46.9 °F - 39.0 °F 74% 30.22 in 10.0 mi North 9.2 mph - N/A   Overcast
5:56 AM 46.9 °F - 37.9 °F 71% 30.22 in 10.0 mi North 11.5 mph - 0.00 in   Mostly Cloudy
6:31 AM 46.4 °F 41.5 °F 37.4 °F 71% 30.24 in 10.0 mi North 10.4 mph - 0.00 in Rain Light Rain
6:56 AM 45.0 °F 40.6 °F 39.9 °F 82% 30.24 in 9.0 mi North 8.1 mph - 0.00 in Rain Light Rain
7:56 AM 44.1 °F 38.1 °F 39.0 °F 82% 30.25 in 9.0 mi North 11.5 mph - 0.01 in Rain Light Rain
8:56 AM 43.0 °F 37.2 °F 37.0 °F 80% 30.30 in 9.0 mi North 10.4 mph - 0.00 in Rain Light Rain
9:56 AM 42.1 °F 35.2 °F 37.0 °F 82% 30.31 in 8.0 mi North 12.7 mph - 0.00 in Rain Light Rain
10:56 AM 41.0 °F 35.2 °F 37.0 °F 86% 30.31 in 7.0 mi North 9.2 mph - 0.01 in Rain Light Rain
11:56 AM 41.0 °F 35.2 °F 37.9 °F 89% 30.30 in 5.0 mi NNW 9.2 mph - 0.04 in Rain Light Rain
12:56 PM 42.1 °F 36.1 °F 39.0 °F 89% 30.27 in 6.0 mi NNW 10.4 mph - 0.04 in Rain Light Rain
1:56 PM 41.0 °F 34.7 °F 37.9 °F 89% 30.23 in 6.0 mi North 10.4 mph - 0.02 in Rain Light Rain
2:56 PM 41.0 °F 34.7 °F 39.0 °F 93% 30.23 in 5.0 mi North 10.4 mph - 0.02 in Rain Light Rain
3:56 PM 42.1 °F 36.6 °F 39.0 °F 89% 30.23 in 5.0 mi North 9.2 mph - 0.03 in Rain Light Rain
4:56 PM 42.1 °F 36.6 °F 39.0 °F 89% 30.25 in 5.0 mi NNW 9.2 mph - 0.01 in Rain Light Rain
5:56 PM 41.0 °F 35.8 °F 39.0 °F 93% 30.27 in 4.0 mi North 8.1 mph - 0.01 in Rain Light Rain
6:56 PM 41.0 °F 38.0 °F 39.9 °F 96% 30.27 in 6.0 mi North 4.6 mph - 0.04 in Rain Light Rain
7:56 PM 41.0 °F 36.4 °F 39.9 °F 96% 30.28 in 6.0 mi North 6.9 mph - 0.03 in Rain Light Rain
8:29 PM 41.0 °F 35.8 °F 39.2 °F 93% 30.30 in 9.0 mi North 8.1 mph - 0.00 in   Overcast
8:56 PM 42.1 °F 39.2 °F 39.9 °F 92% 30.30 in 8.0 mi North 4.6 mph - 0.00 in   Overcast
9:56 PM 42.1 °F 39.2 °F 39.0 °F 89% 30.30 in 8.0 mi North 4.6 mph - N/A   Overcast
10:56 PM 42.1 °F 37.7 °F 39.0 °F 89% 30.30 in 8.0 mi North 6.9 mph - N/A   Overcast
11:56 PM 42.1 °F 38.4 °F 39.0 °F 89% 30.29 in 9.0 mi North 5.8 mph - N/A   Overcast